Overview Statistics Trail Chart Weather Telemetry Raw packets
 

This is the latest recevied weather packets stored in our database for station/object YO3FVR-WX. If no packets are shown the sender has not sent any weather packets the latest 10 day(s).

<< 49 50 51 52 53 54 55 >>
Time Temp. Humidity Pressure Rain* Wind** Luminosity Snow
1787853453 20° C 75% 1015.5 hPa 0 mm - - -
1787852823 20° C 73% 1015.5 hPa 0 mm - - -
1787852193 20.56° C 72% 1015 hPa 0 mm - - -
1787851563 21.11° C 71% 1014.7 hPa 0 mm - - -
1787850933 21.67° C 68% 1014.8 hPa 0 mm - - -
1787850333 23.89° C 66% 1014.9 hPa 0 mm - - -
1787849703 24.44° C 64% 1014.2 hPa 0 mm - - -
1787849103 24.44° C 61% 1013.6 hPa 0 mm - - -
1787848479 25° C 61% 1013.5 hPa 0 mm - - -
1787847843 25° C 61% 1013.1 hPa 0 mm - - -
1787847214 25° C 60% 1013.3 hPa 0 mm - - -
1787846614 25.56° C 60% 1013.2 hPa 0 mm - - -
1787845984 25.56° C 59% 1013.2 hPa 0 mm - - -
1787845354 26.11° C 59% 1013.2 hPa 0 mm - - -
1787844724 26.67° C 58% 1013 hPa 0 mm - - -
1787844094 26.67° C 58% 1013.1 hPa 0 mm - - -
1787843464 26.67° C 57% 1013.1 hPa 0 mm - - -
1787842834 26.67° C 57% 1013.2 hPa 0 mm - - -
1787842204 27.22° C 57% 1013.2 hPa 0 mm - - -
1787841604 27.22° C 56% 1013 hPa 0 mm - - -
1787840974 27.22° C 57% 1012.9 hPa 0 mm - - -
1787840374 26.67° C 57% 1012.8 hPa 0 mm - - -
1787839744 26.67° C 57% 1012.8 hPa 0 mm - - -
1787839144 27.22° C 57% 1012.9 hPa 0 mm - - -
1787838514 27.22° C 57% 1013 hPa 0 mm - - -

* Rain latest hour (hover to see other rain measurements)
** Current wind speed in m/s (hover to see current wind gust speed)